Roanoke, VA

10:56 AM EST on November 15, 2019 (GMT -0500)
Roanoke Regional-Woodrum

Weather History for KROA - September, 2019

Change the Weather History Date:

Sunday, September 1, 2019

  Actual Average Record
Temperature  
Mean Temperature 76 °F 73 °F  
Max Temperature 86 °F 83 °F 103 °F (1932)
Min Temperature 66 °F 63 °F 44 °F (1946)
Degree Days  
Heating Degree Days 0 0  
Month to date heating degree days 0 0  
Since 1 July heating degree days 0 1  
Cooling Degree Days 11 8  
Month to date cooling degree days 11 8  
Year to date cooling degree days 1374 1055  
Growing Degree Days 26 (Base 50)    
Moisture  
Dew Point 63 °F    
Average Humidity 63    
Maximum Humidity 81    
Minimum Humidity 44    
Precipitation  
Precipitation 0.00 in 0.14 in 1.24 in (2000)
Month to date precipitation 0.00 0.14  
Year to date precipitation 30.70 28.27  
Snow  
Snow 0.00 in - - ()
Month to date snowfall 0.0  
Since 1 July snowfall T  
Since 1 September snowfall 0.0  
Snow Depth 0.00 in    
Sea Level Pressure  
Sea Level Pressure 30.21 in    
Wind  
Wind Speed 6 mph (East)    
Max Wind Speed 16 mph    
Max Gust Speed 19 mph    
Visibility 10 miles    
Events      
T = Trace of Precipitation, MM = Missing Value Source: NWS Daily Summary

Daily Weather History Graph

Daily Weather History Graph

Search for Another Location

Airport or City:

Astronomy

Sep. 01, 2019 Rise Set
Actual Time 6:50 AM EDT 7:49 PM EDT
Civil Twilight 6:23 AM EDT 8:15 PM EDT
Nautical Twilight 5:51 AM EDT 8:47 PM EDT
Astronomical Twilight 5:18 AM EDT 9:20 PM EDT
Moon 9:15 AM EDT (9/1) 9:38 PM EDT (9/1)
Length of Visible Light 13h 52m
Length of Day
12h 58m
Waxing Crescent, 8% of the Moon is Illuminated
Sep 1
Waxing Crescent
Sep 5
First Quarter
Sep 14
Full
Sep 21
Last Quarter
Sep 28
New

Hourly Weather History & Observations

Time (EDT) Temp. Heat Index Dew Point Humidity Pressure Visibility Wind Dir Wind Speed Gust Speed Precip Events Conditions
12:54 AM 73.0 °F - 64.9 °F 76% 30.22 in 10.0 mi NNE 11.5 mph - N/A   Partly Cloudy
1:54 AM 72.0 °F - 63.0 °F 73% 30.22 in 10.0 mi NNE 12.7 mph - N/A   Partly Cloudy
2:54 AM 71.1 °F - 62.1 °F 73% 30.23 in 10.0 mi NNE 13.8 mph - N/A   Partly Cloudy
3:54 AM 70.0 °F - 62.1 °F 76% 30.22 in 10.0 mi NNE 10.4 mph - N/A   Clear
4:54 AM 69.1 °F - 62.1 °F 78% 30.21 in 10.0 mi NNE 10.4 mph - N/A   Clear
5:54 AM 68.0 °F - 62.1 °F 81% 30.22 in 10.0 mi North 4.6 mph - N/A   Clear
6:54 AM 68.0 °F - 62.1 °F 81% 30.23 in 10.0 mi Calm Calm - N/A   Scattered Clouds
7:54 AM 69.1 °F - 63.0 °F 81% 30.25 in 10.0 mi NW 3.5 mph - N/A   Mostly Cloudy
8:54 AM 70.0 °F - 63.0 °F 78% 30.26 in 10.0 mi ESE 3.5 mph - N/A   Overcast
9:54 AM 73.9 °F - 64.0 °F 71% 30.26 in 10.0 mi Calm Calm - N/A   Mostly Cloudy
10:54 AM 75.0 °F - 64.9 °F 71% 30.27 in 10.0 mi Calm Calm - N/A   Mostly Cloudy
11:54 AM 78.1 °F - 66.0 °F 66% 30.26 in 10.0 mi South 5.8 mph - N/A   Scattered Clouds
12:54 PM 80.1 °F 81.5 °F 63.0 °F 56% 30.24 in 10.0 mi South 5.8 mph - N/A   Mostly Cloudy
1:54 PM 81.0 °F 82.5 °F 64.0 °F 56% 30.22 in 10.0 mi SSE 5.8 mph - N/A   Mostly Cloudy
2:54 PM 84.0 °F 84.5 °F 62.1 °F 47% 30.19 in 10.0 mi East 6.9 mph - N/A   Scattered Clouds
3:54 PM 84.0 °F 84.4 °F 61.0 °F 46% 30.17 in 10.0 mi ESE 9.2 mph - N/A   Scattered Clouds
4:54 PM 84.0 °F 84.4 °F 61.0 °F 46% 30.17 in 10.0 mi SE 10.4 mph - N/A   Mostly Cloudy
5:54 PM 84.0 °F 84.4 °F 61.0 °F 46% 30.16 in 10.0 mi ESE 9.2 mph - N/A   Scattered Clouds
6:54 PM 81.0 °F 81.7 °F 61.0 °F 50% 30.16 in 10.0 mi SE 8.1 mph - N/A   Partly Cloudy
7:54 PM 79.0 °F - 61.0 °F 54% 30.16 in 10.0 mi East 5.8 mph - N/A   Partly Cloudy
8:54 PM 77.0 °F - 62.1 °F 60% 30.16 in 10.0 mi East 4.6 mph - N/A   Partly Cloudy
9:54 PM 73.9 °F - 62.1 °F 66% 30.17 in 10.0 mi SSE 4.6 mph - N/A   Partly Cloudy
10:54 PM 73.0 °F - 63.0 °F 71% 30.17 in 10.0 mi Calm Calm - N/A   Mostly Cloudy
11:54 PM 70.0 °F - 63.0 °F 78% 30.15 in 10.0 mi Calm Calm - N/A   Clear